This demonstration page uses our WeatherBlox Daily Observations layout. Learn more.

38.89511, -77.03637

Hourly Observations for September 20, 2015

Temp ( °F °C ) Dew Point ( °F °C ) Humidity (%) Winds ( mph kmh ) Pressure ( in mb ) Visibility ( mi km ) Precip ( " mm )
12:52 am 00:52 Mostly Cloudy 73 22.8 67 19.4 81 81 S 9 15 29.88 1012 10 16.0934 0 0
1:52 am 01:52 Mostly Cloudy 72 22.2 67 19.4 84 84 S 5 7 29.87 1012 10 16.0934 0 0
2:52 am 02:52 Mostly Cloudy 71 21.7 67 19.4 87 87 SW 3 6 29.88 1012 10 16.0934 0 0
3:52 am 03:52 Mostly Cloudy 70 21.1 66 18.9 87 87 SW 3 6 29.88 1012 10 16.0934 0 0
4:52 am 04:52 Mostly Cloudy 71 21.7 63 17.2 76 76 NNW 12 19 29.9 1013 10 16.0934 0 0
5:52 am 05:52 Mostly Cloudy 70 21.1 62 16.7 76 76 NNW 14 22 29.92 1013 10 16.0934 0 0
6:52 am 06:52 Mostly Cloudy 69 20.6 59 15 70 70 NNW 14 22 29.96 1014 10 16.0934 0 0
7:52 am 07:52 Mostly Cloudy 69 20.6 57 13.9 66 66 NW 14 22 29.99 1016 10 16.0934 0 0
8:36 am 08:36 Mostly Cloudy 70 21 57 14 64 64 NNW 12 19 30 1016 10 16.0934 0 0
8:38 am 08:38 Mostly Cloudy 70 21 57 14 64 64 NNW 12 19 30 1016 10 16.0934 0 0
8:52 am 08:52 Mostly Cloudy 70 21.1 56 13.3 61 61 N 14 22 30.01 1016 10 16.0934 0 0
9:52 am 09:52 Mostly Cloudy 70 21.1 54 12.2 57 57 N 15 24 30.04 1017 10 16.0934 0 0
10:52 am 10:52 Mostly Cloudy 74 23.3 55 12.8 52 52 N 12 19 30.04 1017 10 16.0934 0 0
11:52 am 11:52 Mostly Cloudy 76 24.4 57 13.9 52 52 N 14 22 30.04 1017 10 16.0934 0 0
12:52 pm 12:52 Mostly Cloudy 75 23.9 57 13.9 54 54 N 13 20 30.04 1017 10 16.0934 0 0
1:52 pm 13:52 Mostly Cloudy 77 25 57 13.9 50 50 NNE 9 15 30.02 1017 10 16.0934 0 0
2:52 pm 14:52 Partly Cloudy 81 27.2 56 13.3 42 42 N 9 15 30 1016 10 16.0934 0 0
3:52 pm 15:52 Partly Cloudy 80 26.7 54 12.2 41 41 NNE 9 15 29.99 1016 10 16.0934 0 0
4:52 pm 16:52 Partly Cloudy 79 26.1 53 11.7 41 41 N 12 19 29.99 1016 10 16.0934 0 0
5:52 pm 17:52 Partly Cloudy 79 26.1 54 12.2 42 42 NNE 13 20 30 1016 10 16.0934 0 0
6:52 pm 18:52 Mostly Cloudy 75 23.9 54 12.2 48 48 N 8 13 30.01 1016 10 16.0934 0 0
7:52 pm 19:52 Mostly Cloudy 73 22.8 54 12.2 51 51 N 9 15 30.02 1017 10 16.0934 0 0
8:52 pm 20:52 Mostly Cloudy 74 23.3 52 11.1 46 46 NNE 13 20 30.06 1018 10 16.0934 0 0
9:52 pm 21:52 Mostly Cloudy 73 22.8 50 10 44 44 NNE 13 20 30.06 1018 10 16.0934 0 0
10:52 pm 22:52 Mostly Cloudy 71 21.7 50 10 47 47 NNE 12 19 30.07 1018 10 16.0934 0 0
11:52 pm 23:52 Cloudy 70 21.1 48 8.9 46 46 NNE 12 19 30.07 1018 10 16.0934 0 0

Powered by AerisWeather